TimeEST,TemperatureF,Dew PointF,Humidity,Sea Level PressureIn,VisibilityMPH,Wind Direction,Wind SpeedMPH,Gust SpeedMPH,PrecipitationIn,Events,Conditions,WindDirDegrees,DateUTC
12:52 AM,5.0,-11.9,46,29.87,10.0,WNW,5.8,-,N/A,,Clear,300,2013-02-05 05:52:00
1:52 AM,3.9,-11.9,48,29.88,10.0,Calm,Calm,-,N/A,,Clear,0,2013-02-05 06:52:00
2:52 AM,3.0,-11.9,50,29.89,10.0,West,6.9,-,N/A,,Clear,270,2013-02-05 07:52:00
3:52 AM,3.0,-11.9,50,29.90,10.0,Variable,5.8,-,N/A,,Clear,0,2013-02-05 08:52:00
4:52 AM,1.9,-11.0,55,29.92,10.0,Calm,Calm,-,N/A,,Clear,0,2013-02-05 09:52:00
5:52 AM,-2.9,-9.9,72,29.94,10.0,Calm,Calm,-,N/A,,Clear,0,2013-02-05 10:52:00
6:52 AM,-7.1,-13.0,75,29.96,10.0,Calm,Calm,-,N/A,,Clear,0,2013-02-05 11:52:00
7:52 AM,-2.9,-9.0,75,29.98,10.0,Calm,Calm,-,N/A,,Clear,0,2013-02-05 12:52:00
8:52 AM,3.0,-9.0,57,30.01,10.0,Calm,Calm,-,N/A,,Clear,0,2013-02-05 13:52:00
9:52 AM,8.1,-9.9,44,30.01,10.0,Variable,4.6,-,N/A,,Clear,0,2013-02-05 14:52:00
10:52 AM,10.9,-11.0,37,30.01,10.0,WNW,8.1,-,N/A,,Clear,290,2013-02-05 15:52:00
11:52 AM,12.9,-9.9,35,29.99,10.0,Variable,4.6,-,N/A,,Clear,0,2013-02-05 16:52:00
12:52 PM,15.1,-11.0,31,29.97,10.0,Variable,5.8,-,N/A,,Clear,0,2013-02-05 17:52:00
1:52 PM,17.1,-9.9,30,29.96,10.0,Variable,4.6,-,N/A,,Clear,0,2013-02-05 18:52:00
2:52 PM,18.0,-8.0,31,29.96,10.0,Calm,Calm,-,N/A,,Clear,0,2013-02-05 19:52:00
3:52 PM,19.0,-9.9,27,29.95,10.0,Variable,3.5,-,N/A,,Clear,0,2013-02-05 20:52:00
4:52 PM,16.0,-8.0,34,29.96,10.0,Calm,Calm,-,N/A,,Clear,0,2013-02-05 21:52:00
6:52 PM,9.0,1.0,70,29.97,10.0,Calm,Calm,-,N/A,,Mostly Cloudy,0,2013-02-05 23:52:00
7:52 PM,9.0,1.0,70,29.96,10.0,Calm,Calm,-,N/A,,Overcast,0,2013-02-06 00:52:00
8:52 PM,10.0,1.9,70,29.96,10.0,Calm,Calm,-,N/A,,Mostly Cloudy,0,2013-02-06 01:52:00
9:52 PM,10.9,1.0,64,29.96,10.0,Calm,Calm,-,N/A,,Overcast,0,2013-02-06 02:52:00
10:52 PM,6.1,1.0,80,29.95,10.0,Calm,Calm,-,N/A,,Clear,0,2013-02-06 03:52:00
11:52 PM,7.0,1.0,77,29.94,10.0,Calm,Calm,-,N/A,,Mostly Cloudy,0,2013-02-06 04:52:00